When you browse on this site, cookies collect data to enhance your experience and personalize the content and advertising you see.
Visit our Privacy Policy to learn more. By continuing to use the site, you agree to this use of cookies and data.
  • In Austria
  • List of Countries
  • For 7 days
  • Water Temperature
  • Satellite Maps
  • Weather Map
  • News
  • Weather Widgets
  • user-avatar
    Login

    Hourly Weather Concord

    Today, 22 April, Monday

    Time Temperature Precipitation Wind Pressure Humidity
    00:00 +11°C° 0 mm 1 mps 747 mmHg 73%
    01:00 +10°C° 0 mm 1 mps 747 mmHg 77%
    02:00 +10°C° 0 mm 1 mps 747 mmHg 78%
    03:00 +10°C° 0 mm 1 mps 747 mmHg 79%
    04:00 +9°C° 0 mm 1 mps 747 mmHg 79%
    05:00 +9°C° 0 mm 2 mps 747 mmHg 79%
    06:00 +9°C° 0 mm 2 mps 747 mmHg 78%
    07:00 +10°C° 0 mm 2 mps 748 mmHg 77%
    08:00 +13°C° 0 mm 2 mps 748 mmHg 70%
    09:00 +16°C° 0 mm 2 mps 748 mmHg 63%
    10:00 +18°C° 0 mm 3 mps 748 mmHg 57%
    11:00 +19°C° 0 mm 3 mps 748 mmHg 53%
    12:00 +20°C° 0 mm 3 mps 748 mmHg 50%
    13:00 +22°C° 0 mm 3 mps 747 mmHg 46%
    14:00 +23°C° 0 mm 2 mps 747 mmHg 45%
    15:00 +24°C° 0 mm 2 mps 746 mmHg 44%
    16:00 +24°C° 0 mm 1 mps 746 mmHg 43%
    17:00 +22°C° 0 mm 1 mps 746 mmHg 49%
    18:00 +20°C° 0 mm 1 mps 746 mmHg 54%
    19:00 +19°C° 0 mm 1 mps 746 mmHg 59%
    20:00 +18°C° 0 mm 1 mps 747 mmHg 62%
    21:00 +16°C° 0 mm 1 mps 747 mmHg 64%
    22:00 +15°C° 0 mm 1 mps 747 mmHg 66%
    23:00 +14°C° 0 mm 1 mps 747 mmHg 68%

    Tomorrow, 23 April, Tuesday

    Time Temperature Precipitation Wind Pressure Humidity
    00:00 +14°C° 0 mm 1 mps 747 mmHg 69%
    01:00 +14°C° 0 mm 1 mps 747 mmHg 71%
    02:00 +13°C° 0 mm 1 mps 747 mmHg 72%
    03:00 +13°C° 0 mm 1 mps 747 mmHg 73%
    04:00 +13°C° 0 mm 1 mps 746 mmHg 75%
    05:00 +13°C° 0 mm 1 mps 747 mmHg 74%
    06:00 +14°C° 0 mm 1 mps 747 mmHg 74%
    07:00 +15°C° 0 mm 1 mps 747 mmHg 74%
    08:00 +18°C° 0 mm 1 mps 747 mmHg 67%
    09:00 +20°C° 0 mm 2 mps 747 mmHg 61%
    10:00 +23°C° 0 mm 2 mps 747 mmHg 55%
    11:00 +25°C° 0 mm 2 mps 746 mmHg 51%
    12:00 +26°C° 0 mm 2 mps 746 mmHg 48%
    13:00 +28°C° 0 mm 3 mps 745 mmHg 45%
    14:00 +28°C° 0 mm 3 mps 745 mmHg 46%
    15:00 +28°C° 0 mm 3 mps 744 mmHg 46%
    16:00 +29°C° 0 mm 3 mps 743 mmHg 46%
    17:00 +27°C° 0 mm 3 mps 743 mmHg 52%
    18:00 +25°C° 0 mm 3 mps 743 mmHg 58%
    19:00 +23°C° 0 mm 2 mps 743 mmHg 63%
    20:00 +21°C° 0.1 mm 2 mps 743 mmHg 66%
    21:00 +20°C° 0.1 mm 2 mps 744 mmHg 69%
    22:00 +19°C° 0.1 mm 2 mps 744 mmHg 72%
    23:00 +19°C° 0 mm 2 mps 744 mmHg 75%

    Day after tomorrow, 24 April, Wednesday

    Time Temperature Precipitation Wind Pressure Humidity
    00:00 +18°C° 0 mm 2 mps 744 mmHg 79%
    01:00 +18°C° 0 mm 2 mps 743 mmHg 83%
    02:00 +17°C° 0 mm 2 mps 743 mmHg 85%
    03:00 +17°C° 0 mm 2 mps 743 mmHg 86%
    04:00 +16°C° 0 mm 1 mps 742 mmHg 88%
    05:00 +18°C° 0 mm 1 mps 743 mmHg 86%
    06:00 +18°C° 0 mm 1 mps 743 mmHg 83%
    07:00 +18°C° 0 mm 1 mps 743 mmHg 81%
    08:00 +21°C° 0 mm 1 mps 743 mmHg 73%
    09:00 +23°C° 0 mm 1 mps 743 mmHg 64%
    10:00 +26°C° 0 mm 1 mps 744 mmHg 56%
    11:00 +27°C° 0 mm 1 mps 743 mmHg 51%
    12:00 +28°C° 0 mm 2 mps 743 mmHg 47%
    13:00 +29°C° 0 mm 2 mps 743 mmHg 43%
    14:00 +29°C° 0 mm 2 mps 742 mmHg 42%
    15:00 +29°C° 0 mm 2 mps 742 mmHg 42%
    16:00 +29°C° 0 mm 2 mps 741 mmHg 42%
    17:00 +27°C° 0 mm 2 mps 741 mmHg 47%
    18:00 +25°C° 0 mm 1 mps 741 mmHg 52%
    19:00 +24°C° 0 mm 1 mps 742 mmHg 57%
    20:00 +23°C° 0.2 mm 1 mps 742 mmHg 62%
    21:00 +22°C° 0.2 mm 1 mps 742 mmHg 67%
    22:00 +21°C° 0.2 mm 1 mps 742 mmHg 71%
    23:00 +20°C° 0.2 mm 1 mps 742 mmHg 76%

    25 April, Thursday

    Time Temperature Precipitation Wind Pressure Humidity
    00:00 +19°C° 0.2 mm 1 mps 742 mmHg 80%
    01:00 +18°C° 0.2 mm 1 mps 742 mmHg 84%
    02:00 +18°C° 0 mm 1 mps 742 mmHg 86%
    03:00 +18°C° 0 mm 1 mps 742 mmHg 88%
    04:00 +16°C° 0 mm 1 mps 742 mmHg 89%
    05:00 +18°C° 0 mm 1 mps 742 mmHg 89%
    06:00 +18°C° 0 mm 1 mps 742 mmHg 88%
    07:00 +19°C° 0 mm 1 mps 743 mmHg 87%
    08:00 +21°C° 0 mm 1 mps 743 mmHg 80%
    09:00 +23°C° 0 mm 1 mps 743 mmHg 73%
    10:00 +25°C° 0 mm 2 mps 743 mmHg 65%
    11:00 +26°C° 0 mm 2 mps 743 mmHg 59%
    12:00 +28°C° 0 mm 2 mps 742 mmHg 53%
    13:00 +29°C° 0 mm 3 mps 742 mmHg 47%
    14:00 +29°C° 0 mm 3 mps 741 mmHg 47%
    15:00 +29°C° 0 mm 3 mps 741 mmHg 48%
    16:00 +29°C° 0 mm 3 mps 740 mmHg 48%
    17:00 +28°C° 0 mm 3 mps 740 mmHg 53%
    18:00 +26°C° 0 mm 2 mps 740 mmHg 57%
    19:00 +25°C° 0 mm 2 mps 740 mmHg 61%
    20:00 +24°C° 0 mm 2 mps 740 mmHg 62%
    21:00 +24°C° 0 mm 3 mps 740 mmHg 63%
    22:00 +22°C° 0 mm 3 mps 741 mmHg 64%
    23:00 +22°C° 0.1 mm 3 mps 740 mmHg 66%

    26 April, Friday

    Time Temperature Precipitation Wind Pressure Humidity
    00:00 +21°C° 0.1 mm 3 mps 740 mmHg 69%
    01:00 +21°C° 0.1 mm 3 mps 740 mmHg 72%
    02:00 +20°C° 0 mm 3 mps 740 mmHg 76%
    03:00 +20°C° 0 mm 2 mps 739 mmHg 80%
    04:00 +19°C° 0 mm 2 mps 739 mmHg 83%
    05:00 +19°C° 0 mm 2 mps 739 mmHg 84%
    06:00 +19°C° 0 mm 3 mps 739 mmHg 85%
    07:00 +19°C° 0 mm 3 mps 739 mmHg 86%
    08:00 +20°C° 0 mm 3 mps 739 mmHg 79%
    09:00 +22°C° 0 mm 4 mps 739 mmHg 72%
    10:00 +23°C° 0 mm 4 mps 739 mmHg 65%
    11:00 +25°C° 0.4 mm 4 mps 738 mmHg 65%
    12:00 +25°C° 0.4 mm 5 mps 738 mmHg 65%
    13:00 +25°C° 0.4 mm 5 mps 738 mmHg 65%
    14:00 +25°C° 1.6 mm 4 mps 738 mmHg 68%
    15:00 +23°C° 1.6 mm 4 mps 738 mmHg 72%
    16:00 +24°C° 1.6 mm 3 mps 738 mmHg 75%
    17:00 +22°C° 0.3 mm 3 mps 738 mmHg 76%
    18:00 +21°C° 0.3 mm 3 mps 739 mmHg 77%
    19:00 +20°C° 0.3 mm 3 mps 740 mmHg 78%
    20:00 +19°C° 0 mm 3 mps 740 mmHg 77%
    21:00 +17°C° 0 mm 4 mps 741 mmHg 76%
    22:00 +15°C° 0 mm 4 mps 742 mmHg 75%
    23:00 +13°C° 0 mm 4 mps 742 mmHg 74%

    27 April, Saturday

    Time Temperature Precipitation Wind Pressure Humidity
    00:00 +12°C° 0 mm 3 mps 743 mmHg 73%
    01:00 +11°C° 0 mm 3 mps 743 mmHg 72%
    02:00 +11°C° 0 mm 3 mps 743 mmHg 70%
    03:00 +10°C° 0 mm 3 mps 743 mmHg 67%
    04:00 +10°C° 0 mm 3 mps 743 mmHg 65%
    05:00 +10°C° 0 mm 3 mps 744 mmHg 63%
    06:00 +10°C° 0 mm 3 mps 745 mmHg 61%
    07:00 +11°C° 0 mm 3 mps 745 mmHg 59%
    08:00 +13°C° 0 mm 3 mps 745 mmHg 55%
    09:00 +16°C° 0 mm 3 mps 746 mmHg 51%
    10:00 +18°C° 0 mm 4 mps 746 mmHg 47%
    11:00 +20°C° 0 mm 3 mps 746 mmHg 44%
    12:00 +21°C° 0 mm 3 mps 745 mmHg 41%
    13:00 +23°C° 0 mm 2 mps 745 mmHg 37%
    14:00 +24°C° 0 mm 2 mps 745 mmHg 37%
    15:00 +24°C° 0 mm 1 mps 744 mmHg 36%
    16:00 +24°C° 0 mm 1 mps 744 mmHg 36%
    17:00 +22°C° 0 mm 1 mps 744 mmHg 41%
    18:00 +21°C° 0 mm 1 mps 744 mmHg 46%
    19:00 +19°C° 0 mm 1 mps 744 mmHg 50%
    20:00 +18°C° 0 mm 1 mps 745 mmHg 52%
    21:00 +16°C° 0 mm 2 mps 745 mmHg 53%
    22:00 +15°C° 0 mm 2 mps 746 mmHg 54%
    23:00 +14°C° 0 mm 2 mps 746 mmHg 57%
    Show more